Location: Sankt Anna
(58.3452°N, 16.7040°E)
Time: 13:45:43
(UTC+02:00)

DX 1 - Pass Details

Date: 31 May 2019
Orbit: 620 x 630 km, 98.4° (Epoch: 16 June)

Event Time Altitude Azimuth Distance (km) Brightness Sun altitude
Rises 01:41:21 0° 105° (ESE) 2,919 ? -9.1°
Reaches altitude 10° 01:44:14 10° 85° (E) 2,017 ? -9.0°
Maximum altitude 01:46:55 16° 47° (NE) 1,650 ? -9.0°
Drops below altitude 10° 01:49:36 10° 9° (N) 2,026 ? -8.9°
Sets 01:52:31 0° 349° (NNW) 2,940 ? -8.8°
